Content
SEND FEEDBACK

Daily
Averages
Monthly
Summary
Canada

QUEBEC CITY, QUEBEC


Home > North America > Canada > Quebec
Elevation: 239 feet     Latitude: 46 48N     Longitude: 071 23W

WEATHER
 
SELECT A DAY
Number of Records: 192,737;   Date Range: 6/30/96 - 9/8/14
 
SHARE

PRINT THIS DATA

[ ← Previous Day ]
WEATHER ALMANAC - OCTOBER 26, 2013
[ Next Day → ]
[ °C ]   °F
Weather ElementAverageHighLow
Temperature36.1 °F40 °F (11:00 pm)30.2 °F (4:00 am)
Dewpoint32.2 °F37.4 °F (11:00 pm)26.6 °F (3:00 am)
Humidity84.9 %93 % (1:00 pm)61 % (11:00 am)
Barometer29.90 in30.03 in (1:00 am)29.74 in (11:00 pm)
Wind Speed6.1 mph9.2 mph (1:00 am)
Wind Gust18.4 mph (8:00 pm)
Weather ElementAverage
Visibility11.5 mi
Wind DirectionS (176.5 °)

Weather ElementTotal
Precipitation---
Heating Degree Days29.9 (Base 65)
Averaged from 35 records on October 26, 2013
WEATHER CONDITIONS BREAKOUT
WIND DIRECTION BREAKOUT
Weather ElementAverageHighLow
Temperature36.1 °F40 °F (11:00 pm)30.2 °F (4:00 am)
Dewpoint32.2 °F37.4 °F (11:00 pm)26.6 °F (3:00 am)
Humidity84.9 %93 % (1:00 pm)61 % (11:00 am)
Barometer29.90 in30.03 in (1:00 am)29.74 in (11:00 pm)
Wind Speed6.1 mph9.2 mph (1:00 am)
Wind Gust18.4 mph (8:00 pm)
Weather ElementAverage
Visibility11.5 mi
Wind DirectionS (176.5 °)

Weather ElementTotal
Precipitation---
Heating Degree Days29.9 (Base 65)
Averaged from 35 records on October 26, 2013
WEATHER CONDITIONS BREAKOUT
WIND DIRECTION BREAKOUT
WEATHER BY HOUR - OCTOBER 26, 2013
[ °C ]   °F
Local TimeTemperatureDewpointHumidityBarometerVisibilityWind DirectionWind SpeedGust SpeedPrecipitationEventsConditions
1:00 AM35.6 °F28.4 °F75 %30.03 in15.0 miSW (230°)9.2 mphMostly Cloudy
2:00 AM35.0 °F29.0 °F73 %30.02 inWSW (240°)6.9 mph
2:00 AM33.8 °F28.4 °F81 %30.02 in15.0 miWSW (240°)9.2 mphMostly Cloudy
3:00 AM32.0 °F26.6 °F80 %30.02 in15.0 miWSW (240°)8.1 mphScattered Clouds
4:00 AM30.2 °F26.6 °F86 %30.01 in15.0 miSW (230°)6.9 mphMostly Cloudy
5:00 AM33.0 °F28.0 °F76 %30.01 inSW (230°)3.5 mph
5:00 AM30.2 °F26.6 °F86 %30.01 in15.0 miSW (230°)6.9 mphMostly Cloudy
6:00 AM32.0 °F28.4 °F87 %30.00 in15.0 miSSW (200°)6.9 mphMostly Cloudy
7:00 AM32.0 °F28.4 °F87 %30.01 in15.0 miSW (220°)6.9 mphMostly Cloudy
8:00 AM32.0 °F30.0 °F87 %30.00 inCalm
8:00 AM32.0 °F28.4 °F87 %30.00 in25.0 miCalmOvercast
9:00 AM33.8 °F30.2 °F87 %29.99 in25.0 miCalmOvercast
10:00 AM35.6 °F28.4 °F75 %29.98 in25.0 miCalmOvercast
11:00 AM39.0 °F30.0 °F61 %29.94 inSouth (190°)4.6 mph
11:00 AM39.2 °F28.4 °F65 %29.95 in25.0 miSouth (170°)6.9 mphOvercast
11:05 AM39.2 °F30.2 °F70 %29.95 in25.0 miSSW (200°)6.9 mph
11:34 AM37.4 °F30.2 °F75 %29.94 in4.0 miSSE (160°)8.1 mphSnowLight Snow
12:00 PM35.6 °F32.0 °F87 %29.92 in4.0 miSouth (190°)2.3 mphRain-SnowLight Rain
12:23 PM37.4 °F33.8 °F87 %29.91 in4.0 miSSE (160°)5.8 mphRainLight Rain
1:00 PM37.4 °F35.6 °F93 %29.88 in4.0 miSouth (170°)4.6 mphRainLight Rain
1:37 PM37.4 °F35.6 °F93 %29.86 in4.0 miSSE (150°)8.1 mphRainLight Rain
2:00 PM38.0 °F36.0 °F91 %29.83 inSSE (160°)6.9 mph
2:00 PM37.4 °F35.6 °F93 %29.85 in3.0 miSSE (150°)6.9 mphRainLight Rain
3:00 PM37.4 °F35.6 °F93 %29.82 in3.0 miSE (140°)5.8 mphRainLight Rain
4:00 PM39.2 °F35.6 °F87 %29.81 in4.0 miSSE (160°)6.9 mphRainLight Rain
5:00 PM39.2 °F35.6 °F87 %29.79 in10.0 miSouth (180°)8.1 mphRainLight Rain
5:00 PM39.0 °F37.0 °F88 %29.78 inSouth (180°)8.1 mph
6:00 PM37.4 °F35.6 °F93 %29.79 in6.0 miSouth (190°)8.1 mphRainLight Rain
7:00 PM37.4 °F35.6 °F93 %29.79 in6.0 miSouth (180°)6.9 mphRainLight Rain
8:00 PM38.0 °F36.0 °F91 %29.77 inSSW (200°)5.8 mph
8:00 PM37.4 °F35.6 °F93 %29.78 in6.0 miSouth (190°)9.2 mph18.4 mphRainLight Rain
9:00 PM37.4 °F35.6 °F93 %29.77 in6.0 miSouth (190°)8.1 mphRainLight Rain
10:00 PM37.4 °F35.6 °F93 %29.76 in6.0 miSouth (190°)4.6 mphRainLight Rain
11:00 PM40.0 °F37.0 °F85 %29.74 inSW (230°)6.9 mph
11:00 PM39.2 °F37.4 °F93 %29.75 in10.0 miSSW (210°)9.2 mphOvercast
Hourly data recorded from CYQB, located miles away from Quebec City, Quebec







STORIES FROM OUR PARTNERS